NOAA 16 DEB, 41097

Orbit data source: Space-Track

NOAA 16 DEB, 41097 is space debris in SSO originally from a launch on Thu, 21 Sep 2000 UTC launched from the Air Force Western Test Range (AFWTR). Debris objects in space refer to the collection of defunct objects orbiting the Earth. Examples of debris include non-operational satellites, rocket bodies, and fragments generated from explosions, collisions, or faulty payload assembly.

Loading next visibility...
Identifier
41097, 2000-055BG
Orbit
SSO
Country
Flag of USUS
Related business
Manufacturer
Unknown
Mission
Spacecraft
Bus & Motor
Unknown
Mass
Unknown
Launch date (UTC)
2000-09-21 (25 years ago)
Launch vehicle
Unknown
Launch site
Air Force Western Test Range (AFWTR)
Object type
Payload
Rocket body
Debris
Shape & HBR
Unknown shape, 0.1 m
Radar Cross Section
Small (<0.1 m²)

Expand to show TLE details & history
Last TLE update: 21 hours ago

TLE from 21 hours ago
0 NOAA 16 DEB
1 41097U 00055BG  25293.35991876  .00003672  00000-0  24246-2 0  9998
2 41097  98.9064 254.7734 0091637 105.7729 255.3564 14.00215156502459
Epoch: 2025-10-20T08:38Z
TLE epoch observation values (Epoch: 2025-10-20T08:38:16.980Z)
Latitude
-0.00007°
Longitude
96.13931°
Altitude
913.349 km
Speed
7.386 km/s
True Right ascension
16h 59m 05s
True Declination
0° 00' 00"
Sunlit
Object was in daylight at epoch
Visualization orbit readout
Latitude
Unknown
Longitude
Unknown
Altitude
Unknown
Speed
Unknown
Apparent Right ascension
Unknown
Apparent Declination
Unknown
Sunlit
N/A
Visualization observer readout
Local Sidereal Time
00:12:06
Azimuth
Unknown
Elevation
Unknown
Doppler factor
Unknown
Orbital elements
Apogee altitude
956.85 km
Perigee altitude
823.639 km
Semi-major axis
7,268.381 km
Eccentricity
0.00916
Inclination
98.9064°
RAAN
254.7734°
Arg. of periapsis
105.7729°
True anomaly
254.34341°
Mean anomaly
255.3564°
Eccentric anomaly
254.84961°
Mean motion
3.50257 °/min
Orbital period
102.78 mins
BSTAR
0.0024246
Loading maneuver chart data...
Computing Atmospheric mass density...

Documentation

Showing up to 5 results
|